RYR319 LMML-LICT

Flight info

Callsign RYR319
Flight time N/A
Altitude 18000
Route GZO M622 MABOX M726 PIVOP
Aircraft B738/M-SDE2E3FGHIRWXY/LB1

Departure

Time 2026-05-01 13:36
Airport Malta International Airport (LMML)

Arrival

Time N/A
Airport Vincenzo Florio Airport Trapani-Birgi (LICT)
Time Latitude Longitude Altitude Speed Heading
2026-05-01 13:21 35.85411 14.48515 260 ft 0 kts 360°
2026-05-01 13:30 35.85429 14.48448 260 ft 5 kts 279°
2026-05-01 13:31 35.85478 14.48360 260 ft 6 kts 314°
2026-05-01 13:31 35.85657 14.48167 260 ft 18 kts 283°
2026-05-01 13:32 35.85665 14.47854 263 ft 19 kts 311°
2026-05-01 13:33 35.85728 14.47364 260 ft 29 kts 233°
2026-05-01 13:33 35.85455 14.46973 272 ft 32 kts 235°
2026-05-01 13:34 35.85206 14.46490 284 ft 31 kts 235°
2026-05-01 13:34 35.84949 14.46046 279 ft 25 kts 233°
2026-05-01 13:35 35.84767 14.46036 285 ft 6 kts 69°
2026-05-01 13:35 35.84779 14.46062 285 ft 0 kts 55°
2026-05-01 13:35 35.84926 14.46319 285 ft 77 kts 54°
2026-05-01 13:36 35.85394 14.47123 274 ft 150 kts 54°
2026-05-01 13:36 35.86038 14.48246 867 ft 165 kts 54°
2026-05-01 13:36 35.87337 14.50533 2402 ft 175 kts 55°
2026-05-01 13:37 35.88082 14.51832 2816 ft 195 kts 54°
2026-05-01 13:37 35.88896 14.53252 3327 ft 212 kts 54°
2026-05-01 13:37 35.89690 14.54650 3766 ft 230 kts 53°
2026-05-01 13:37 35.90594 14.56246 4385 ft 243 kts 53°
2026-05-01 13:38 35.93260 14.58920 5689 ft 261 kts 11°
2026-05-01 13:38 35.95045 14.59059 6597 ft 260 kts 353°
2026-05-01 13:38 35.96807 14.58598 7470 ft 262 kts 337°
2026-05-01 13:39 35.98508 14.57109 8459 ft 263 kts 311°
2026-05-01 13:39 35.99350 14.55726 9126 ft 264 kts 299°
2026-05-01 13:39 35.99939 14.53176 10090 ft 267 kts 279°
2026-05-01 13:39 36.00118 14.50871 10719 ft 277 kts 277°
2026-05-01 13:40 36.00308 14.48461 11216 ft 290 kts 279°
2026-05-01 13:40 36.00568 14.45956 11783 ft 301 kts 280°
2026-05-01 13:40 36.00881 14.43355 12211 ft 315 kts 281°
2026-05-01 13:40 36.01226 14.40633 12796 ft 324 kts 281°
2026-05-01 13:41 36.01579 14.37885 13578 ft 328 kts 280°
2026-05-01 13:41 36.01930 14.35116 14335 ft 331 kts 280°
2026-05-01 13:41 36.02281 14.32313 15143 ft 332 kts 280°
2026-05-01 13:41 36.02633 14.29514 15853 ft 335 kts 280°
2026-05-01 13:42 36.02993 14.26663 16559 ft 337 kts 280°
2026-05-01 13:42 36.03414 14.23826 17253 ft 338 kts 285°
2026-05-01 13:42 36.04256 14.21113 17876 ft 341 kts 298°
2026-05-01 13:42 36.05705 14.18800 18091 ft 348 kts 314°
2026-05-01 13:43 36.07610 14.16923 18096 ft 348 kts 321°
2026-05-01 13:43 36.09561 14.15227 18093 ft 347 kts 322°
2026-05-01 13:43 36.11559 14.13525 18092 ft 348 kts 321°
2026-05-01 13:43 36.13559 14.11809 18093 ft 348 kts 321°
2026-05-01 13:44 36.15533 14.10094 18094 ft 347 kts 321°
2026-05-01 13:44 36.17500 14.08366 18090 ft 347 kts 321°
2026-05-01 13:44 36.19447 14.06644 18093 ft 348 kts 321°
2026-05-01 13:44 36.21425 14.04887 18090 ft 348 kts 321°
2026-05-01 13:45 36.23399 14.03132 18092 ft 348 kts 321°
2026-05-01 13:45 36.25350 14.01395 18091 ft 348 kts 321°
2026-05-01 13:45 36.27309 13.99651 18090 ft 347 kts 321°
2026-05-01 13:45 36.29277 13.97900 18091 ft 347 kts 321°
2026-05-01 13:46 36.31256 13.96135 18093 ft 347 kts 321°
2026-05-01 13:46 36.33212 13.94394 18091 ft 346 kts 321°
2026-05-01 13:46 36.35145 13.92670 18092 ft 346 kts 321°
2026-05-01 13:46 36.37109 13.90915 18090 ft 347 kts 321°
2026-05-01 13:47 36.39077 13.89156 18091 ft 346 kts 321°
2026-05-01 13:47 36.41000 13.87441 18091 ft 344 kts 321°
2026-05-01 13:47 36.42952 13.85695 18091 ft 346 kts 321°
2026-05-01 13:47 36.44910 13.83942 18092 ft 346 kts 321°
2026-05-01 13:48 36.46864 13.82193 18092 ft 346 kts 321°
2026-05-01 13:48 36.48812 13.80448 18094 ft 345 kts 321°
2026-05-01 13:48 36.50745 13.78715 18094 ft 345 kts 321°
2026-05-01 13:48 36.52700 13.76962 18094 ft 346 kts 321°
2026-05-01 13:49 36.54656 13.75207 18094 ft 344 kts 321°
2026-05-01 13:49 36.56597 13.73466 18094 ft 345 kts 321°
2026-05-01 13:49 36.58538 13.71722 18092 ft 344 kts 321°
2026-05-01 13:49 36.60463 13.69991 18093 ft 345 kts 321°
2026-05-01 13:50 36.62429 13.68222 18095 ft 345 kts 321°
2026-05-01 13:50 36.64366 13.66479 18096 ft 345 kts 321°
2026-05-01 13:50 36.66305 13.64733 18095 ft 344 kts 321°
2026-05-01 13:50 36.68256 13.62975 18094 ft 345 kts 321°
2026-05-01 13:51 36.70205 13.61218 18098 ft 347 kts 321°
2026-05-01 13:51 36.72155 13.59459 18096 ft 345 kts 321°
2026-05-01 13:51 36.74092 13.57709 18096 ft 344 kts 321°
2026-05-01 13:51 36.76011 13.55975 18098 ft 345 kts 321°
2026-05-01 13:52 36.77951 13.54220 18098 ft 345 kts 321°
2026-05-01 13:52 36.79901 13.52457 18097 ft 342 kts 321°
2026-05-01 13:52 36.81819 13.50722 18099 ft 343 kts 321°
2026-05-01 13:52 36.83745 13.48977 18099 ft 343 kts 321°
2026-05-01 13:53 36.85700 13.47204 18098 ft 343 kts 321°
2026-05-01 13:53 36.89542 13.43717 18102 ft 344 kts 321°
2026-05-01 13:53 36.91478 13.41960 18101 ft 343 kts 321°
2026-05-01 13:54 36.93400 13.40213 18100 ft 342 kts 321°
2026-05-01 13:54 36.95350 13.38439 18103 ft 344 kts 321°
2026-05-01 13:54 36.97290 13.36672 18100 ft 345 kts 321°
2026-05-01 13:54 36.99224 13.34912 18101 ft 344 kts 321°
2026-05-01 13:55 37.01165 13.33144 18105 ft 345 kts 321°
2026-05-01 13:55 37.03086 13.31392 18106 ft 344 kts 321°
2026-05-01 13:55 37.05027 13.29622 18105 ft 343 kts 321°
2026-05-01 13:55 37.06967 13.27850 18105 ft 346 kts 321°
2026-05-01 13:56 37.08888 13.26094 18108 ft 344 kts 321°
2026-05-01 13:56 37.10840 13.24310 18106 ft 340 kts 321°
2026-05-01 13:56 37.12700 13.22613 18105 ft 324 kts 321°
2026-05-01 13:56 37.14481 13.21042 18107 ft 309 kts 324°
2026-05-01 13:57 37.16380 13.19808 18109 ft 309 kts 336°
2026-05-01 13:57 37.17797 13.19362 18097 ft 318 kts 346°
2026-05-01 13:57 37.20771 13.19146 17751 ft 322 kts 354°
2026-05-01 13:57 37.23008 13.19156 17331 ft 320 kts 355°
2026-05-01 13:58 37.25203 13.19185 16891 ft 317 kts 355°
2026-05-01 13:58 37.27413 13.19192 16447 ft 315 kts 354°
2026-05-01 13:58 37.29597 13.19173 16013 ft 312 kts 354°
2026-05-01 13:58 37.31755 13.19140 15570 ft 309 kts 354°
2026-05-01 13:59 37.33869 13.19102 15143 ft 306 kts 354°
2026-05-01 13:59 37.35994 13.19060 14701 ft 304 kts 354°
2026-05-01 13:59 37.38097 13.19019 14267 ft 301 kts 355°
2026-05-01 13:59 37.40189 13.18978 13841 ft 298 kts 355°
2026-05-01 14:00 37.42257 13.18937 13418 ft 295 kts 355°
2026-05-01 14:00 37.44284 13.18897 13005 ft 293 kts 355°
2026-05-01 14:00 37.46315 13.18843 12595 ft 289 kts 353°
2026-05-01 14:00 37.48280 13.18435 12175 ft 282 kts 338°
2026-05-01 14:01 37.49939 13.17181 11786 ft 277 kts 316°
2026-05-01 14:01 37.51155 13.15319 11399 ft 279 kts 307°
2026-05-01 14:01 37.52319 13.13320 10963 ft 285 kts 308°
2026-05-01 14:01 37.53497 13.11350 10550 ft 283 kts 308°
2026-05-01 14:02 37.54676 13.09408 10305 ft 274 kts 309°
2026-05-01 14:02 37.55804 13.07556 10193 ft 263 kts 309°
2026-05-01 14:02 37.56902 13.05748 9902 ft 258 kts 309°
2026-05-01 14:02 37.57990 13.03956 9531 ft 257 kts 309°
2026-05-01 14:03 37.59076 13.02162 9188 ft 255 kts 309°
2026-05-01 14:03 37.60147 13.00392 8863 ft 252 kts 309°
2026-05-01 14:03 37.61191 12.98665 8540 ft 250 kts 309°
2026-05-01 14:03 37.62243 12.96924 8208 ft 248 kts 309°
2026-05-01 14:04 37.63300 12.95175 7885 ft 254 kts 309°
2026-05-01 14:04 37.64378 12.93390 7540 ft 255 kts 309°
2026-05-01 14:04 37.65440 12.91622 7203 ft 253 kts 309°
2026-05-01 14:04 37.66148 12.90438 6983 ft 252 kts 309°
2026-05-01 14:05 37.67533 12.88118 6549 ft 249 kts 309°
2026-05-01 14:05 37.68578 12.86367 6223 ft 247 kts 309°
2026-05-01 14:05 37.69612 12.84637 5895 ft 246 kts 309°
2026-05-01 14:05 37.70636 12.82922 5572 ft 244 kts 310°
2026-05-01 14:06 37.71658 12.81212 5141 ft 250 kts 310°
2026-05-01 14:06 37.72685 12.79430 4814 ft 249 kts 306°
2026-05-01 14:06 37.73581 12.77578 4620 ft 247 kts 305°
2026-05-01 14:06 37.74519 12.75794 4398 ft 239 kts 309°
2026-05-01 14:07 37.75528 12.74142 4147 ft 235 kts 312°
2026-05-01 14:07 37.76555 12.72578 3884 ft 231 kts 314°
2026-05-01 14:07 37.77563 12.71029 3654 ft 228 kts 311°
2026-05-01 14:08 37.79381 12.67913 3315 ft 212 kts 311°
2026-05-01 14:08 37.80260 12.66453 3101 ft 204 kts 312°
2026-05-01 14:08 37.81124 12.65042 2908 ft 198 kts 312°
2026-05-01 14:08 37.81944 12.63719 2802 ft 187 kts 313°
2026-05-01 14:09 37.82744 12.62430 2516 ft 186 kts 313°
2026-05-01 14:09 37.83525 12.61160 2241 ft 178 kts 313°
2026-05-01 14:09 37.84239 12.59990 2039 ft 161 kts 314°
2026-05-01 14:09 37.84917 12.58900 1817 ft 157 kts 315°
2026-05-01 14:10 37.85576 12.57832 1618 ft 153 kts 314°
2026-05-01 14:10 37.86218 12.56785 1404 ft 152 kts 314°
2026-05-01 14:10 37.86879 12.55719 1212 ft 155 kts 314°
2026-05-01 14:10 37.87549 12.54623 1008 ft 157 kts 313°
2026-05-01 14:11 37.88210 12.53560 752 ft 154 kts 314°
2026-05-01 14:11 37.89511 12.51455 393 ft 152 kts 313°
2026-05-01 14:11 37.90157 12.50394 189 ft 151 kts 314°
2026-05-01 14:12 37.90778 12.49388 31 ft 134 kts 312°